unixtime,lat,lon,depth,sci_water_temp
1562185234.28564, 47.943273333299999, -63.987418333299999, 6.0699535368094315, 13.4287
1562185236.29147, 47.943273333299999, -63.987418333299999, 6.4790477823945585, 13.3276
1562185238.3085, 47.943273333299999, -63.987418333299999, 6.8904262870954343, 13.2146
1562185240.31372, 47.943273333299999, -63.987418333299999, 7.2993960985210498, 13.1104
1562185242.32474, 47.943273333299999, -63.987418333299999, 7.7095488367924769, 13.0314
1562185244.34454, 47.943273333299999, -63.987418333299999, 8.121492328011275, 12.9982
1562185246.35623, 47.943273333299999, -63.987418333299999, 8.5317817055903316, 12.9992
1562185248.43961, 47.943273333299999, -63.987418333299999, 8.9566924616076289, 12.982
1562185250.45282, 47.943273333299999, -63.987418333299999, 9.3672918791245703, 12.9671
1562185252.46243, 47.943273333299999, -63.987418333299999, 9.7771570427108259, 12.8963
1562185254.47946, 47.943273333299999, -63.987418333299999, 10.188535547411703, 12.7436
1562185256.49112, 47.943273333299999, -63.987418333299999, 10.598818846729746, 12.596
1562185258.50531, 47.943273333299999, -63.987418333299999, 11.000829970270139, 11.8274
1562185260.51575, 47.943273333299999, -63.987418333299999, 11.325713096067062, 11.5855
1562185262.52914, 47.943273333299999, -63.987418333299999, 11.651072967002449, 11.4297
1562185264.54004, 47.943273333299999, -63.987418333299999, 11.97603045178735, 10.4891
1562185266.5535, 47.943273333299999, -63.987418333299999, 12.301401611418839, 9.8272
1562185268.56396, 47.943273333299999, -63.987418333299999, 12.626288012093472, 9.1894
1562185270.5773, 47.943273333299999, -63.987418333299999, 12.95163979215452, 8.7157
1562185272.60065, 47.943273333299999, -63.987418333299999, 13.278609169163882, 8.5428
1562185274.61438, 47.943273333299999, -63.987418333299999, 13.604023942460859, 8.3621
1562185276.62375, 47.943273333299999, -63.987418333299999, 13.928734193242727, 8.2516
1562185278.63672, 47.943273333299999, -63.987418333299999, 14.254026177889608, 8.2127
1562185280.64621, 47.943273333299999, -63.987418333299999, 14.578755808241919, 8.0449
1562185282.65018, 47.943273333299999, -63.987418333299999, 14.902593438962278, 7.9242
1562185284.65988, 47.943273333299999, -63.987418333299999, 15.227356973930867, 7.8032
1562185286.67316, 47.943273333299999, -63.987418333299999, 15.552699083470682, 7.8211
1562185288.68549, 47.943273333299999, -63.987418333299999, 15.877887620509936, 7.8423
1562185290.70395, 47.943273333299999, -63.987418333299999, 16.204066788792137, 8.4729
1562185292.71368, 47.943273333299999, -63.987418333299999, 16.528835216813302, 8.6314
1562185294.72726, 47.943273333299999, -63.987418333299999, 16.854225794543208, 8.8268
1562185296.73615, 47.943273333299999, -63.987418333299999, 17.178858449987359, 8.8314
1562185298.74973, 47.943273333299999, -63.987418333299999, 17.504249027717265, 8.5942
1562185300.75818, 47.943273333299999, -63.987418333299999, 17.828810560523177, 8.3091
1562185302.77179, 47.943273333299999, -63.987418333299999, 18.154205992777687, 7.9756
1562185304.77945, 47.943273333299999, -63.987418333299999, 18.478639882408899, 7.7418
1562185306.79321, 47.943273333299999, -63.987418333299999, 18.813543617634505, 7.4724
1562185308.80182, 47.943273333299999, -63.987418333299999, 19.152113671104317, 7.0838
1562185310.81549, 47.943273333299999, -63.987418333299999, 19.491536627862533, 6.8351
1562185312.82446, 47.943273333299999, -63.987418333299999, 19.83016736474023, 6.7066
1562185314.83813, 47.943273333299999, -63.987418333299999, 20.169590321498447, 6.4892
1562185316.84705, 47.943273333299999, -63.987418333299999, 20.508212618961799, 6.1459
1562185318.86047, 47.943273333299999, -63.987418333299999, 20.847593459023685, 5.9002
1562185320.86938, 47.943273333299999, -63.987418333299999, 21.186214068604173, 5.6594
1562185322.88226, 47.943273333299999, -63.987418333299999, 21.525503883554233, 5.5245
1562185324.89206, 47.943273333299999, -63.987418333299999, 21.864274513771559, 5.2906
1562185326.90485, 47.943273333299999, -63.987418333299999, 22.203549137775806, 5.0983
1562185328.91428, 47.943273333299999, -63.987418333299999, 22.542257396702379, 4.9671
1562185330.92722, 47.943273333299999, -63.987418333299999, 22.881557338949648, 4.8185
1562185332.93716, 47.943273333299999, -63.987418333299999, 23.220351559339441, 4.7256
1562185334.95007, 47.943273333299999, -63.987418333299999, 23.55964639775042, 4.7076
1562185336.95987, 47.943273333299999, -63.987418333299999, 23.898417068155432, 4.6966
1562185338.97275, 47.943273333299999, -63.987418333299999, 24.237706842917806, 4.6905
1562185340.99548, 47.943273333299999, -63.987418333299999, 24.57865697198261, 4.6917
1562185343.00781, 47.943273333299999, -63.987418333299999, 24.917854073937981, 4.6874
1562185345.0177, 47.943273333299999, -63.987418333299999, 25.256639854913431, 4.644
1562185347.03052, 47.943273333299999, -63.987418333299999, 25.595919542566282, 4.6167
1562185349.05521, 47.943273333299999, -63.987418333299999, 25.937200054608702, 4.6273
1562185350.15689, 47.943273333299999, -63.987418333299999, 26.122898516512929, 4.6283
1562185352.16104, 47.943273333299999, -63.987418333299999, 26.460716819103371, 4.6142
1562185354.18094, 47.943273333299999, -63.987418333299999, 26.79662082685584, 4.5973
1562185356.18979, 47.943273333299999, -63.987418333299999, 27.130344492184321, 4.5946
1562185358.20999, 47.943273333299999, -63.987418333299999, 27.465953681836393, 4.5974
1562185360.22723, 47.943273333299999, -63.987418333299999, 27.801071141954228, 4.5945
1562185362.24271, 47.943273333299999, -63.987418333299999, 28.135896218067089, 4.5867
1562185364.26569, 47.943273333299999, -63.987418333299999, 28.471967233443625, 4.5712
1562185366.27756, 47.943273333299999, -63.987418333299999, 28.806192569837805, 4.5644
1562185368.29416, 47.943273333299999, -63.987418333299999, 29.141203683294385, 4.53
1562185370.30389, 47.943273333299999, -63.987418333299999, 29.475073540625356, 4.3878
1562185372.3053, 47.943273333299999, -63.987418333299999, 29.807561208221621, 4.1183
1562185374.31024, 47.943273333299999, -63.987418333299999, 30.14063530735103, 3.8824
1562185376.31223, 47.943273333299999, -63.987418333299999, 30.473219340469392, 3.6615
1562185378.32532, 47.943273333299999, -63.987418333299999, 30.807647349439222, 3.5101
1562185380.34283, 47.943273333299999, -63.987418333299999, 31.142809645467871, 3.2299
1562185382.353, 47.943273333299999, -63.987418333299999, 31.476752578996233, 2.9735
1562185384.43494, 47.943273333299999, -63.987418333299999, 31.822618458539374, 2.7511
1562185386.4473, 47.943273333299999, -63.987418333299999, 32.156925188746911, 2.4485
1562185388.45673, 47.943273333299999, -63.987418333299999, 32.490745179989794, 2.3352
1562185390.46869, 47.943273333299999, -63.987418333299999, 32.824985488092707, 2.312
1562185392.47812, 47.943273333299999, -63.987418333299999, 33.158805518943282, 2.1623
1562185394.49033, 47.943273333299999, -63.987418333299999, 33.493087335910623, 1.705
1562185396.49994, 47.943273333299999, -63.987418333299999, 33.826937230963281, 1.5802
1562185398.51233, 47.943273333299999, -63.987418333299999, 34.161248991348096, 1.545
1562185400.52179, 47.943273333299999, -63.987418333299999, 34.468018697054312, 1.5278
1562185402.53802, 47.943273333299999, -63.987418333299999, 34.76239890808543, 1.5227
1562185404.54749, 47.943273333299999, -63.987418333299999, 35.05579214064079, 1.5178
1562185406.55942, 47.943273333299999, -63.987418333299999, 35.349544581424247, 1.5136
1562185408.56818, 47.943273333299999, -63.987418333299999, 35.642834148691954, 1.509
1562185410.59201, 47.943273333299999, -63.987418333299999, 35.938324009949561, 1.5017
1562185412.60184, 47.943273333299999, -63.987418333299999, 36.231769806166554, 1.483
1562185414.61447, 47.943273333299999, -63.987418333299999, 36.525624415391675, 1.485
1562185416.62338, 47.943273333299999, -63.987418333299999, 36.818935878383328, 1.4808
1562185418.63705, 47.943273333299999, -63.987418333299999, 37.112942330450871, 1.4707
1562185420.646, 47.943273333299999, -63.987418333299999, 37.406259641585017, 1.4439
1562185422.65897, 47.943273333299999, -63.987418333299999, 37.700163925210902, 1.4026
1562185424.66788, 47.943273333299999, -63.987418333299999, 37.993475388202562, 1.3393
1562185426.68082, 47.943273333299999, -63.987418333299999, 38.287375250911204, 1.2573
1562185428.6897, 47.943273333299999, -63.987418333299999, 38.580682327795998, 1.1964
1562185430.6933, 47.943273333299999, -63.987418333299999, 38.873218528994066, 1.1711
1562185432.70154, 47.943273333299999, -63.987418333299999, 39.166432174840558, 1.0503
1562185434.72824, 47.943273333299999, -63.987418333299999, 39.462341083355646, 0.9679
1562185436.73743, 47.943273333299999, -63.987418333299999, 39.755693448534338, 0.9505
1562185438.75345, 47.943273333299999, -63.987418333299999, 40.05004299162777, 0.9099
1562185440.76196, 47.943273333299999, -63.987418333299999, 40.343296077625681, 0.9043
1562185442.77646, 47.943273333299999, -63.987418333299999, 40.637423704597957, 0.8716
1562185444.78558, 47.943273333299999, -63.987418333299999, 40.930765835527303, 0.8215
1562185446.79529, 47.943273333299999, -63.987418333299999, 41.220715472741453, 0.7822
1562185448.81384, 47.943273333299999, -63.987418333299999, 41.501727144535728, 0.7889
1562185450.82669, 47.943273333299999, -63.987418333299999, 41.78194531064689, 0.7219
1562185452.84875, 47.943273333299999, -63.987418333299999, 42.06344565873566, 0.6612
1562185454.86124, 47.943273333299999, -63.987418333299999, 42.343613672712003, 0.5079
1562185456.87518, 47.943273333299999, -63.987418333299999, 42.623983589690404, 0.4188
1562185458.88177, 47.943273333299999, -63.987418333299999, 42.903330250438223, 0.3849
1562185460.89407, 47.943273333299999, -63.987418333299999, 43.18347184409734, 0.4256
1562185462.90775, 47.943273333299999, -63.987418333299999, 43.463805549309306, 0.4615
1562185464.93015, 47.943273333299999, -63.987418333299999, 43.745353228267867, 0.4013
1562185466.9411, 47.943273333299999, -63.987418333299999, 44.025306859293302, 0.3397
1562185468.95081, 47.943273333299999, -63.987418333299999, 44.30508789528163, 0.3341
1562185470.96347, 47.943273333299999, -63.987418333299999, 44.585279607884218, 0.3805
1562185472.97342, 47.943273333299999, -63.987418333299999, 44.865094034373953, 0.5204
1562185474.98654, 47.943273333299999, -63.987418333299999, 45.145349806288394, 0.5571
1562185476.99603, 47.943273333299999, -63.987418333299999, 45.425100206657632, 0.5231
1562185479.00854, 47.943273333299999, -63.987418333299999, 45.705271008707648, 0.5211
1562185481.01843, 47.943273333299999, -63.987418333299999, 45.985077104167708, 0.5139
1562185483.03168, 47.943273333299999, -63.987418333299999, 46.265350965369691, 0.5083
1562185485.0451, 47.943273333299999, -63.987418333299999, 46.545648458815215, 0.4885
1562185487.05994, 47.943273333299999, -63.987418333299999, 46.826143673152295, 0.4137
1562185488.16379, 47.943273333299999, -63.987418333299999, 46.979815722307265, 0.3488
1562185490.18683, 47.943273333299999, -63.987418333299999, 47.261452486858055, 0.3271
1562185492.21249, 47.943273333299999, -63.987418333299999, 47.543453991190162, 0.2438
1562185494.23148, 47.943273333299999, -63.987418333299999, 47.827532296307467, 0.2355
1562185496.2464, 47.943273333299999, -63.987418333299999, 48.114124358229809, 0.243
1562185498.26562, 47.943273333299999, -63.987418333299999, 48.401327979289718, 0.2607
1562185500.27991, 47.943273333299999, -63.987418333299999, 48.687830413242636, 0.1271
1562185502.28946, 47.943273333299999, -63.987418333299999, 48.973658619693438, 0.0805
1562185504.30548, 47.943273333299999, -63.987418333299999, 49.260407115146975, 0.0572
1562185506.31235, 47.943273333299999, -63.987418333299999, 49.545854156869694, 0.041
1562185508.31848, 47.943273333299999, -63.987418333299999, 49.831195937443312, 0.0022
1562185510.3251, 47.943273333299999, -63.987418333299999, 50.116607406052168, -0.0371
1562185512.34451, 47.943273333299999, -63.987418333299999, 50.403838088451316, -0.0856
1562185514.43353, 47.943273333299999, -63.987418333299999, 50.700969728131163, -0.0883
1562185516.44266, 47.943273333299999, -63.987418333299999, 50.9867382165138, -0.0545
1562185518.45547, 47.943273333299999, -63.987418333299999, 51.273030128168507, -0.0506
1562185520.46436, 47.943273333299999, -63.987418333299999, 51.558764467718298, -0.0393
1562185522.47681, 47.943273333299999, -63.987418333299999, 51.845005173079457, 0.0649
1562185524.49063, 47.943273333299999, -63.987418333299999, 52.1314407336477, 0.0886
1562185526.5032, 47.943273333299999, -63.987418333299999, 52.41769853038101, 0.0656
1562185528.51288, 47.943273333299999, -63.987418333299999, 52.703545252484972, 0.0047
1562185530.52539, 47.943273333299999, -63.987418333299999, 52.989794469620755, 0.028
1562185532.53476, 47.943273333299999, -63.987418333299999, 53.275597106836244, 0.0049
1562185534.54742, 47.943273333299999, -63.987418333299999, 53.561867688187213, -0.0409
1562185536.55716, 47.943273333299999, -63.987418333299999, 53.847722922065799, -0.0582
1562185538.56979, 47.943273333299999, -63.987418333299999, 54.133989230573732, -0.0688
1562185540.57892, 47.943273333299999, -63.987418333299999, 54.417724281379307, -0.1234
1562185542.59192, 47.943273333299999, -63.987418333299999, 54.693468650705007, -0.1317
1562185544.60083, 47.943273333299999, -63.987418333299999, 54.968652787430884, -0.1122
1562185546.61481, 47.943273333299999, -63.987418333299999, 55.244531385273852, -0.0669
1562185548.62369, 47.943273333299999, -63.987418333299999, 55.519711374305885, -0.0487
1562185550.63763, 47.943273333299999, -63.987418333299999, 55.795584518094742, -0.0536
1562185552.64597, 47.943273333299999, -63.987418333299999, 56.070690567135756, -0.0767
1562185554.65988, 47.943273333299999, -63.987418333299999, 56.34655956323077, -0.1125
1562185556.66888, 47.943273333299999, -63.987418333299999, 56.621756012402152, -0.131
1562185558.68256, 47.943273333299999, -63.987418333299999, 56.897593525214774, -0.1171
1562185560.69116, 47.943273333299999, -63.987418333299999, 57.17273517257302, -0.0233
1562185562.70502, 47.943273333299999, -63.987418333299999, 57.448597342935649, 0.0469
1562185564.71396, 47.943273333299999, -63.987418333299999, 57.723785562037357, 0.0413
1562185566.72791, 47.943273333299999, -63.987418333299999, 57.999660077504487, 0.0542
1562185568.73682, 47.943273333299999, -63.987418333299999, 58.27484418157136, 0.0552
1562185570.7507, 47.943273333299999, -63.987418333299999, 58.55070909529055, 0.0565
1562185572.75974, 47.943273333299999, -63.987418333299999, 58.825911031175046, 0.0575
1562185574.77625, 47.943273333299999, -63.987418333299999, 59.102136173737414, 0.0633
1562185576.78262, 47.943273333299999, -63.987418333299999, 59.376972361406601, 0.0475
1562185578.79538, 47.943273333299999, -63.987418333299999, 59.652683875771622, 0.0425
1562185580.80499, 47.943273333299999, -63.987418333299999, 59.927963866681978, 0.0488
1562185582.81796, 47.943273333299999, -63.987418333299999, 60.203704120972837, 0.086
1562185584.82761, 47.943273333299999, -63.987418333299999, 60.4789895985963, 0.0985
1562185586.83975, 47.943273333299999, -63.987418333299999, 60.754616166885064, 0.0824
1562185588.85001, 47.943273333299999, -63.987418333299999, 61.053727954418683, 0.0574
1562185590.86221, 47.943273333299999, -63.987418333299999, 61.356362476723326, 0.0578
1562185592.87268, 47.943273333299999, -63.987418333299999, 61.65873677672495, 0.0744
1562185594.88547, 47.943273333299999, -63.987418333299999, 61.96146001199331, 0.0913
1562185596.89566, 47.943273333299999, -63.987418333299999, 62.263792214573996, 0.1093
1562185598.90396, 47.943273333299999, -63.987418333299999, 62.565840169918083, 0.114
1562185600.9191, 47.943273333299999, -63.987418333299999, 62.868916858575012, 0.1155
1562185602.93219, 47.943273333299999, -63.987418333299999, 63.171685203345532, 0.1215
1562185604.94507, 47.943273333299999, -63.987418333299999, 63.474421992979408, 0.1283
1562185606.95471, 47.943273333299999, -63.987418333299999, 63.776671470900723, 0.1324
1562185608.96472, 47.943273333299999, -63.987418333299999, 64.078976600608485, 0.1313
1562185610.97852, 47.943273333299999, -63.987418333299999, 64.381851730830078, 0.1303
1562185612.98764, 47.943273333299999, -63.987418333299999, 64.684023002213863, 0.1287
1562185615.00168, 47.943273333299999, -63.987418333299999, 64.986934241552049, 0.1288
1562185617.01022, 47.943273333299999, -63.987418333299999, 65.289018306012721, 0.1544
1562185619.02402, 47.943273333299999, -63.987418333299999, 65.591893436234315, 0.1816
1562185621.03305, 47.943273333299999, -63.987418333299999, 65.894051189110684, 0.186
1562185623.05963, 47.943273333299999, -63.987418333299999, 66.198848421593382, 0.1894
1562185624.15686, 47.943273333299999, -63.987418333299999, 66.363871638419923, 0.1939
1562185626.18057, 47.943273333299999, -63.987418333299999, 66.668237210976514, 0.2207
1562185628.20584, 47.943273333299999, -63.987418333299999, 66.972837474861919, 0.2548
1562185630.22382, 47.943273333299999, -63.987418333299999, 67.276341269465007, 0.2686
1562185632.23965, 47.943273333299999, -63.987418333299999, 67.579521731491781, 0.2872
1562185634.258, 47.943273333299999, -63.987418333299999, 67.883081177881323, 0.3177
1562185636.27301, 47.943273333299999, -63.987418333299999, 68.178625421790883, 0.3431
1562185638.29129, 47.943273333299999, -63.987418333299999, 68.474405245164547, 0.3587
1562185640.30957, 47.943273333299999, -63.987418333299999, 68.770185068538225, 0.3821
1562185642.31888, 47.943273333299999, -63.987418333299999, 69.064650331224613, 0.3842
1562185644.34274, 47.943273333299999, -63.987418333299999, 69.361247898486994, 0.3863
1562185646.4317, 47.943273333299999, -63.987418333299999, 69.667385892645157, 0.3911
1562185648.44064, 47.943273333299999, -63.987418333299999, 69.961796927912502, 0.4032
1562185650.45245, 47.943273333299999, -63.987418333299999, 70.256628575080896, 0.4136
1562185652.461, 47.943273333299999, -63.987418333299999, 70.550982447940029, 0.4178
1562185654.47275, 47.943273333299999, -63.987418333299999, 70.845805290140916, 0.4208
1562185656.48218, 47.943273333299999, -63.987418333299999, 71.140288162762346, 0.4217
1562185658.49396, 47.943273333299999, -63.987418333299999, 71.435115372506644, 0.4214
1562185660.50323, 47.943273333299999, -63.987418333299999, 71.729574800155035, 0.4216
1562185662.51511, 47.943273333299999, -63.987418333299999, 72.024416684845193, 0.4214
1562185664.52209, 47.943273333299999, -63.987418333299999, 72.31854047551721, 0.4239
1562185666.5351, 47.943273333299999, -63.987418333299999, 72.613547977453692, 0.4255
1562185668.5433, 47.943273333299999, -63.987418333299999, 72.907850557882952, 0.4263
1562185670.55615, 47.943273333299999, -63.987418333299999, 73.202834614846367, 0.4266
1562185672.56314, 47.943273333299999, -63.987418333299999, 73.496959873012969, 0.4262
1562185674.57837, 47.943273333299999, -63.987418333299999, 73.792292739463704, 0.4271
1562185676.58725, 47.943273333299999, -63.987418333299999, 74.086694969763528, 0.4267
1562185678.60068, 47.943273333299999, -63.987418333299999, 74.381764036591974, 0.429
1562185680.60886, 47.943273333299999, -63.987418333299999, 74.676063682032066, 0.4293
1562185682.634, 47.943273333299999, -63.987418333299999, 74.97268819059137, 0.43
1562185684.64221, 47.943273333299999, -63.987418333299999, 75.266758808626477, 0.4304
1562185686.64572, 47.943273333299999, -63.987418333299999, 75.560141193906105, 0.4307
1562185688.65402, 47.943273333299999, -63.987418333299999, 75.85422500891687, 0.4312
1562185690.66718, 47.943273333299999, -63.987418333299999, 76.149020483060582, 0.4324
1562185692.67499, 47.943273333299999, -63.987418333299999, 76.443032517695713, 0.4333
1562185694.68878, 47.943273333299999, -63.987418333299999, 76.737920265931265, 0.4326
1562185696.69629, 47.943273333299999, -63.987418333299999, 77.031888380472736, 0.433
1562185698.70749, 47.943273333299999, -63.987418333299999, 77.326396837851732, 0.4341
1562185700.71542, 47.943273333299999, -63.987418333299999, 77.620426468454426, 0.4342
1562185702.72818, 47.943273333299999, -63.987418333299999, 77.915163359198161, 0.4341
1562185704.73697, 47.943273333299999, -63.987418333299999, 78.209318919671958, 0.4345
1562185706.74954, 47.943273333299999, -63.987418333299999, 78.504028019958966, 0.4344
1562185708.75891, 47.943273333299999, -63.987418333299999, 78.798268487958836, 0.4349
1562185710.77048, 47.943273333299999, -63.987418333299999, 79.092831129745917, 0.4346
1562185712.77878, 47.943273333299999, -63.987418333299999, 79.386914944756683, 0.4348
1562185714.79041, 47.943273333299999, -63.987418333299999, 79.68148638452756, 0.4348
1562185716.7988, 47.943273333299999, -63.987418333299999, 79.97558336160138, 0.4348
1562185718.80914, 47.943273333299999, -63.987418333299999, 80.269965889109272, 0.4351
1562185720.81619, 47.943273333299999, -63.987418333299999, 80.563866657179616, 0.4351
1562185722.83414, 47.943273333299999, -63.987418333299999, 80.859363561054465, 0.435
1562185724.84421, 47.943273333299999, -63.987418333299999, 81.153706532547972, 0.4349
1562185726.85413, 47.943273333299999, -63.987418333299999, 81.448027578907258, 0.4351
1562185728.86267, 47.943273333299999, -63.987418333299999, 81.744610393323484, 0.4355
1562185730.87537, 47.943273333299999, -63.987418333299999, 82.047043569126686, 0.4353
1562185732.88205, 47.943273333299999, -63.987418333299999, 82.348572154802156, 0.4352
1562185734.8952, 47.943273333299999, -63.987418333299999, 82.651072933043807, 0.4351
1562185736.90082, 47.943273333299999, -63.987418333299999, 82.952442239206107, 0.4353
1562185738.91406, 47.943273333299999, -63.987418333299999, 83.254956559430653, 0.4357
1562185740.92249, 47.943273333299999, -63.987418333299999, 83.556748067361468, 0.4353
1562185742.93515, 47.943273333299999, -63.987418333299999, 83.859175224505606, 0.4352
1562185744.94305, 47.943273333299999, -63.987418333299999, 84.16088712850518, 0.436
1562185746.95538, 47.943273333299999, -63.987418333299999, 84.463264703362697, 0.4362
1562185748.96442, 47.943273333299999, -63.987418333299999, 84.765147924193599, 0.4365
1562185750.98376, 47.943273333299999, -63.987418333299999, 85.068578836038654, 0.4369
1562185752.99841, 47.943273333299999, -63.987418333299999, 85.371304991567172, 0.4364
1562185755.01196, 47.943273333299999, -63.987418333299999, 85.673865884748793, 0.4371
1562185757.02002, 47.943273333299999, -63.987418333299999, 85.975601827559288, 0.4367
1562185759.03299, 47.943273333299999, -63.987418333299999, 86.278075557660486, 0.4369
1562185761.0553, 47.943273333299999, -63.987418333299999, 86.581952745910343, 0.4382
1562185763.06631, 47.943273333299999, -63.987418333299999, 86.884131955796093, 0.4386
1562185764.16528, 47.943273333299999, -63.987418333299999, 87.049265868808419, 0.4382
1562185766.17737, 47.943273333299999, -63.987418333299999, 87.3516073675369, 0.4386
1562185768.20529, 47.943273333299999, -63.987418333299999, 87.656327526309724, 0.4384
1562185770.22287, 47.943273333299999, -63.987418333299999, 87.959493975409316, 0.4375
1562185772.2377, 47.943273333299999, -63.987418333299999, 88.262247179078301, 0.4372
1562185774.25604, 47.943273333299999, -63.987418333299999, 88.565527839398769, 0.441
1562185776.27002, 47.943273333299999, -63.987418333299999, 88.787195446889655, 0.4377
1562185778.29227, 47.943273333299999, -63.987418333299999, 88.269768437971052, 0.4375
1562185780.30948, 47.943273333299999, -63.987418333299999, 87.753630980870497, 0.4468
1562185782.32016, 47.943273333299999, -63.987418333299999, 87.239164347117494, 0.4409
1562185784.33673, 47.943273333299999, -63.987418333299999, 86.723190623262582, 0.4422
1562185786.34268, 47.943273333299999, -63.987418333299999, 86.209934236849477, 0.438
1562185788.36038, 47.943273333299999, -63.987418333299999, 85.693671417670004, 0.4372
1562185816.61301, 47.943273333299999, -63.987418333299999, 78.464755958363824, 0.4353